Location: PSU-Greenbush Astrophysical Observatory
(37.5140°N, 94.9880°W)
Time: 08:27:54
(UTC-06:00)

ISS - Visible Passes

Search period start: 07 December 2019 00:00
Search period end: 17 December 2019 00:00
Orbit: 411 x 421 km, 51.6° (Epoch: 07 December)

Date Brightness Start Highest point End Pass type
(mag) Time Alt. Az. Time Alt. Az. Time Alt. Az.
07 Dec -2.6 18:26:13 10° NNW 18:28:44 27° NNE 18:28:44 27° NNE visible
08 Dec -2.2 17:38:02 10° NNW 17:40:33 19° NNE 17:42:51 11° ENE visible
08 Dec -1.6 19:14:12 10° WNW 19:15:48 25° WNW 19:15:48 25° WNW visible
09 Dec -3.9 18:25:41 10° NW 18:29:03 77° NE 18:30:13 37° ESE visible
10 Dec -3.3 17:37:18 10° NW 17:40:31 42° NE 17:43:43 10° ESE visible
10 Dec -1.1 19:14:41 10° W 19:17:01 18° SW 19:18:03 16° SSW visible
11 Dec -1.9 18:25:38 10° WNW 18:28:39 32° SW 18:31:40 10° SSE visible
12 Dec -3.2 17:36:54 10° NW 17:40:14 62° SW 17:43:32 10° SE visible
13 Dec -0.1 18:27:21 10° WSW 18:28:00 10° SW 18:28:40 10° SW visible
14 Dec -0.6 17:37:11 10° W 17:39:40 19° SW 17:42:07 10° S visible
